Weather in Pereleski

Russia / Yaroslavl Oblast     56°52′11″N   39°03′26″E
temp.,
°C
wind,
m/s
gust,
m/s
humid.,
%
clouds,
%
prec.,
mm/h
press.,
hPa
HPBL,
m
15 may, sat
sat1500:00+13ese41195100 8.4 1013281
03:00+12ese41098100 8.4 1012243
06:00+15se4109778 3.8 1009242
09:00+17se81592100 6.1 1008530
12:00+22sse6107485 1.1 10081265
15:00+21ssw5877100 3.3 1008937
18:00+19s611774 2.3 1008554
21:00+15ssw513887 2.9 1009335
16 may, sun
sun1600:00+13s412935 0.0 1009303
03:00+12s4119611 0.0 1010299
06:00+13ssw5119639 0.0 1010385
09:00+17ssw687815 0.0 1011806
12:00+20ssw686329 0.4 10111621
15:00+19ssw797012 2.0 10121182
18:00+18sw4978100 0.9 1012506
21:00+14sw389356 1.0 1013165
17 may, mon
mon1700:00+13sw35940 0.0 101486
03:00+12sw3394100 0.0 101537
06:00+14s2391100 0.0 1016101
09:00+18s247391 0.0 1016505
12:00+22se3459100 0.0 10161147
15:00+23ese456156 0.0 10141203
18:00+22e48715 0.0 1013485
21:00+17ese411915 0.3 1012186
18 may, tue
tue1800:00+15se411905 0.0 1012186
03:00+14se410925 0.0 1011168
06:00+16se514827 0.0 1010310
09:00+20se6136641 0.0 1010499
12:00+24se6125958 0.0 1009835
15:00+26se712545 0.0 10081505
18:00+23se614627 0.0 1007600
21:00+18se617735 0.0 1007457
19 may, wed
wed1900:00+17sse4128337 0.0 1007299
03:00+15sse379533 0.0 1007134
06:00+16sse3893100 0.0 1006248
09:00+17se5108873 0.3 1006496
12:00+20sse71873100 0.3 10052029
15:00+20se92162100 0.7 10032295
18:00+16sse8158238 0.6 10021102
21:00+13sse615914 0.6 1001753